Home   Weather   Pierre   Past weeks

Flag for USA Past Weather in Pierre, South Dakota, USA — Yesterday and Last 2 Weeks

Now
48 °F

Clear.


Feels Like: 45 °F
Forecast: 45 / 76 °F
Wind: 7 mph from Southwest

Location: Pierre Regional Airport

Current Time: Sep 27, 2016 at 3:55:55 AM

Latest Report: Sep 27, 2016 at 2:53 AM


Visibility: 10 mi

Pressure: 30.05 "Hg

Humidity: 68%

Dew Point: 38 °F

Location of PierreLocation

Past Weather in Pierre — Graph

°F

Pierre Temperature Yesterday

Maximum temperature yesterday: 73 °F (at 3:53 PM)
Minimum temperature yesterday: 43 °F (at 5:53 AM)
Average temperature yesterday: 57 °F

High & Low Weather Summary for the Past Weeks

 TemperatureHumidityPressure
High91 °F (Sep 23, 4:53 PM)100% (Sep 23, 7:53 AM)30.34 "Hg (Sep 23, 7:53 AM)
Low36 °F (Sep 14, 6:53 AM)19% (Sep 17, 4:53 PM)29.61 "Hg (Sep 23, 5:53 PM)
Average63 °F63%29.95 "Hg
* Reported Sep 12 2:53 AM — Sep 27 2:53 AM, Pierre, Weather by CustomWeather, © 2016

Note: Actual official high and low records may vary slightly from our data, if they occured in-between our weather recording intervals... More about our weather records

Advertising

Pierre Weather History for the Previous 24 Hours

Scroll right to see more
 ConditionsComfort  
Time TempWeatherWind HumidityBarometerVisibility
2:53 AM
Tue, Sep 27
48 °FClear.7 mph68%30.05 "Hg10 mi
1:53 AM50 °FClear.8 mph66%30.06 "Hg10 mi
12:53 AM51 °FClear.7 mph69%30.07 "Hg10 mi
11:53 PM
Mon, Sep 26
52 °FClear.8 mph61%30.09 "Hg10 mi
10:53 PM49 °FClear.9 mph66%30.09 "Hg10 mi
9:53 PM55 °FClear.8 mph51%30.10 "Hg10 mi
8:53 PM57 °FClear.8 mph47%30.10 "Hg10 mi
7:53 PM61 °FClear.8 mph42%30.09 "Hg10 mi
6:53 PM70 °FSunny.13 mph30%30.08 "Hg10 mi
5:53 PM73 °FSunny.15 mph28%30.08 "Hg10 mi
4:53 PM73 °FSunny.17 mph27%30.10 "Hg10 mi
3:53 PM73 °FSunny.16 mph28%30.11 "Hg10 mi
2:53 PM72 °FSunny.15 mph29%30.12 "Hg10 mi
1:53 PM70 °FSunny.17 mph31%30.15 "Hg10 mi
12:53 PM68 °FSunny.12 mph35%30.16 "Hg10 mi
11:53 AM64 °FSunny.9 mph43%30.19 "Hg10 mi
10:53 AM59 °FSunny.8 mph54%30.19 "Hg10 mi
9:53 AM53 °FSunny.5 mph59%30.21 "Hg10 mi
8:53 AM47 °FSunny.3 mph69%30.21 "Hg10 mi
7:53 AM43 °FSunny.5 mph74%30.21 "Hg10 mi
6:53 AM43 °FClear.9 mph74%30.20 "Hg10 mi
5:53 AM43 °FClear.8 mph74%30.20 "Hg10 mi
4:53 AM44 °FClear.12 mph71%30.20 "Hg10 mi
3:53 AM44 °FClear.7 mph71%30.20 "Hg10 mi
Weather by CustomWeather, © 2016

See weather overviewHow to use our weather pages